TimeCST,TemperatureF,Dew PointF,Humidity,Sea Level PressureIn,VisibilityMPH,Wind Direction,Wind SpeedMPH,Gust SpeedMPH,PrecipitationIn,Events,Conditions,WindDirDegrees,DateUTC
12:15 AM,28.4,24.8,86,30.09,2.5,South,8.1,-,N/A,,Overcast,170,2014-01-10 06:15:00
12:35 AM,28.4,26.6,93,30.09,2.5,South,6.9,-,N/A,,Overcast,180,2014-01-10 06:35:00
12:55 AM,28.4,26.6,93,30.08,2.5,South,5.8,-,N/A,,Overcast,180,2014-01-10 06:55:00
1:15 AM,28.4,26.6,93,30.07,2.0,SSE,4.6,-,N/A,,Overcast,160,2014-01-10 07:15:00
1:35 AM,28.4,26.6,93,30.06,1.2,SSE,6.9,-,N/A,,Overcast,150,2014-01-10 07:35:00
1:55 AM,28.4,26.6,93,30.06,1.0,South,5.8,-,N/A,,Overcast,170,2014-01-10 07:55:00
2:15 AM,30.2,26.6,86,30.05,1.0,South,4.6,-,N/A,,Overcast,170,2014-01-10 08:15:00
2:35 AM,30.2,26.6,86,30.05,1.5,South,4.6,-,N/A,,Overcast,170,2014-01-10 08:35:00
2:55 AM,30.2,26.6,86,30.04,1.5,South,3.5,-,N/A,,Overcast,170,2014-01-10 08:55:00
3:15 AM,30.2,26.6,86,30.04,1.5,South,3.5,-,N/A,,Overcast,170,2014-01-10 09:15:00
3:35 AM,30.2,26.6,86,30.02,1.0,SSE,3.5,-,N/A,,Overcast,150,2014-01-10 09:35:00
3:55 AM,30.2,28.4,93,30.02,0.8,Calm,Calm,-,N/A,,Overcast,0,2014-01-10 09:55:00
4:15 AM,30.2,28.4,93,30.01,0.5,SSE,4.6,-,N/A,Fog,Light Freezing Fog,160,2014-01-10 10:15:00
4:35 AM,30.2,28.4,93,30.01,0.2,SSE,5.8,-,N/A,Fog,Light Freezing Fog,160,2014-01-10 10:35:00
4:55 AM,30.2,28.4,93,29.98,0.2,SE,9.2,-,N/A,Fog,Light Freezing Fog,130,2014-01-10 10:55:00
5:15 AM,30.2,28.4,93,29.97,0.2,SSE,9.2,-,N/A,Fog,Light Freezing Fog,150,2014-01-10 11:15:00
5:35 AM,30.2,28.4,93,29.96,0.5,SE,8.1,-,N/A,Fog,Light Freezing Fog,140,2014-01-10 11:35:00
5:55 AM,30.2,28.4,93,29.95,0.8,SE,9.2,-,N/A,,Overcast,140,2014-01-10 11:55:00
6:15 AM,30.2,28.4,93,29.95,0.8,SE,6.9,-,N/A,,Overcast,140,2014-01-10 12:15:00
6:35 AM,32.0,28.4,87,29.94,1.2,SE,6.9,-,N/A,,Overcast,140,2014-01-10 12:35:00
6:55 AM,32.0,28.4,87,29.93,2.5,SE,8.1,-,N/A,,Overcast,140,2014-01-10 12:55:00
7:15 AM,32.0,30.2,93,29.92,3.0,SE,8.1,-,N/A,,Overcast,140,2014-01-10 13:15:00
7:35 AM,32.0,30.2,93,29.92,3.0,SSE,10.4,-,N/A,,Overcast,150,2014-01-10 13:35:00
7:55 AM,32.0,30.2,93,29.91,2.5,SE,10.4,17.3,N/A,,Overcast,140,2014-01-10 13:55:00
8:15 AM,32.0,30.2,93,29.90,2.0,SE,11.5,17.3,N/A,,Overcast,140,2014-01-10 14:15:00
8:35 AM,33.8,30.2,87,29.89,2.5,SE,11.5,17.3,N/A,,Overcast,140,2014-01-10 14:35:00
8:55 AM,33.8,30.2,87,29.88,2.0,SE,11.5,16.1,N/A,,Overcast,140,2014-01-10 14:55:00
9:15 AM,33.8,30.2,87,29.87,1.8,SE,9.2,16.1,N/A,,Overcast,140,2014-01-10 15:15:00
9:35 AM,33.8,30.2,87,29.87,2.0,SSE,12.7,-,N/A,,Overcast,150,2014-01-10 15:35:00
9:55 AM,33.8,30.2,87,29.86,1.5,SE,15.0,20.7,N/A,,Overcast,140,2014-01-10 15:55:00
10:15 AM,33.8,30.2,87,29.85,0.8,SSE,13.8,18.4,N/A,,Overcast,150,2014-01-10 16:15:00
10:35 AM,33.8,30.2,87,29.83,0.8,SE,11.5,17.3,N/A,Rain,Rain,140,2014-01-10 16:35:00
10:55 AM,33.8,30.2,87,29.80,1.0,SE,11.5,18.4,0.02,Rain,Light Rain,140,2014-01-10 16:55:00
11:15 AM,33.8,32.0,93,29.78,2.5,SE,13.8,18.4,N/A,,Overcast,140,2014-01-10 17:15:00
11:35 AM,33.8,32.0,93,29.76,2.0,SE,13.8,19.6,N/A,,Overcast,140,2014-01-10 17:35:00
11:55 AM,33.8,32.0,93,29.74,1.2,South,10.4,19.6,0.03,Rain,Light Rain,170,2014-01-10 17:55:00
12:15 PM,33.8,32.0,93,29.74,3.0,SSE,10.4,-,0.01,Rain,Light Rain,160,2014-01-10 18:15:00
12:35 PM,35.6,32.0,87,29.69,4.0,SE,11.5,17.3,0.04,Rain,Light Rain,140,2014-01-10 18:35:00
12:55 PM,35.6,32.0,87,29.67,1.5,SSE,10.4,-,0.09,Rain,Rain,150,2014-01-10 18:55:00
1:15 PM,35.6,33.8,93,29.65,2.5,SSE,11.5,-,0.03,Rain,Light Rain,150,2014-01-10 19:15:00
1:35 PM,35.6,33.8,93,29.67,2.5,SSE,10.4,-,0.03,,Overcast,160,2014-01-10 19:35:00
1:55 PM,35.6,33.8,93,29.65,1.2,SSE,9.2,-,0.14,Rain,Heavy Rain,150,2014-01-10 19:55:00
2:15 PM,35.6,33.8,93,29.63,2.5,SSE,10.4,-,0.08,Rain,Light Rain,150,2014-01-10 20:15:00
2:35 PM,35.6,33.8,93,29.62,2.0,SSE,9.2,-,0.13,Rain,Rain,150,2014-01-10 20:35:00
2:55 PM,35.6,33.8,93,29.60,2.5,SSE,9.2,-,0.17,Rain,Rain,150,2014-01-10 20:55:00
3:15 PM,35.6,33.8,93,29.58,3.0,SSE,9.2,-,0.03,Rain,Light Rain,160,2014-01-10 21:15:00
3:35 PM,37.4,35.6,93,29.56,5.0,SSE,12.7,21.9,0.04,Rain,Light Rain,160,2014-01-10 21:35:00
3:55 PM,37.4,35.6,93,29.57,5.0,SSE,12.7,-,0.04,,Overcast,160,2014-01-10 21:55:00
4:15 PM,37.4,35.6,93,29.56,3.0,SSE,10.4,17.3,N/A,,Overcast,160,2014-01-10 22:15:00
4:35 PM,37.4,35.6,93,29.56,1.8,SSE,10.4,-,N/A,,Overcast,160,2014-01-10 22:35:00
4:55 PM,39.2,35.6,87,29.56,1.5,South,9.2,-,N/A,,Overcast,170,2014-01-10 22:55:00
5:15 PM,39.2,35.6,87,29.55,2.0,SSE,10.4,-,0.01,,Overcast,160,2014-01-10 23:15:00
5:35 PM,39.2,37.4,93,29.55,2.5,South,9.2,-,0.01,,Overcast,170,2014-01-10 23:35:00
5:55 PM,39.2,37.4,93,29.54,0.8,South,5.8,-,0.01,,Overcast,170,2014-01-10 23:55:00
6:15 PM,39.2,37.4,93,29.53,1.5,South,6.9,-,N/A,,Overcast,170,2014-01-11 00:15:00
6:35 PM,39.2,37.4,93,29.53,2.0,South,8.1,-,N/A,,Overcast,180,2014-01-11 00:35:00
6:55 PM,41.0,39.2,93,29.53,2.0,South,9.2,-,N/A,,Overcast,190,2014-01-11 00:55:00
7:15 PM,42.8,39.2,87,29.53,1.8,SSW,8.1,-,N/A,,Overcast,200,2014-01-11 01:15:00
7:35 PM,41.0,39.2,93,29.54,0.8,WSW,9.2,-,0.01,,Overcast,240,2014-01-11 01:35:00
7:55 PM,41.0,39.2,93,29.54,1.0,WSW,3.5,-,0.01,,Light Drizzle,250,2014-01-11 01:55:00
8:15 PM,39.2,37.4,93,29.53,1.8,Calm,Calm,-,0.01,,Light Drizzle,0,2014-01-11 02:15:00
8:35 PM,39.2,37.4,93,29.54,1.2,Calm,Calm,-,0.01,,Overcast,0,2014-01-11 02:35:00
8:55 PM,39.2,37.4,93,29.54,2.0,SW,4.6,-,0.01,,Overcast,230,2014-01-11 02:55:00
9:15 PM,39.2,37.4,93,29.54,4.0,WSW,4.6,-,0.01,,Overcast,240,2014-01-11 03:15:00
9:35 PM,39.2,37.4,93,29.54,5.0,WSW,4.6,-,0.01,,Overcast,250,2014-01-11 03:35:00
9:55 PM,39.2,37.4,93,29.54,3.0,West,4.6,-,0.01,,Overcast,260,2014-01-11 03:55:00
10:15 PM,37.4,37.4,100,29.53,4.0,West,4.6,-,N/A,,Overcast,270,2014-01-11 04:15:00
10:35 PM,37.4,35.6,93,29.53,5.0,West,3.5,-,N/A,,Overcast,270,2014-01-11 04:35:00
10:55 PM,37.4,35.6,93,29.53,4.0,WSW,3.5,-,N/A,,Overcast,250,2014-01-11 04:55:00
11:15 PM,37.4,35.6,93,29.53,3.0,West,6.9,-,N/A,,Overcast,270,2014-01-11 05:15:00
11:35 PM,37.4,35.6,93,29.53,4.0,West,8.1,-,N/A,,Overcast,270,2014-01-11 05:35:00
11:55 PM,37.4,35.6,93,29.53,5.0,West,5.8,-,N/A,,Overcast,270,2014-01-11 05:55:00